| time (UTC) | temp F | wind direction | speed knots | gust knots | rain 1hr in | rain 24hr in | rain mn in | humidity % | barometer mb |
| 20260505124520 | 64 | 0.0 | 0.0 | 0.00 | 0.00 | 0.00 | 69 | 1011.5 | |
| 20260505123520 | 63 | 0.0 | 0.0 | 0.00 | 0.00 | 0.00 | 71 | 1011.5 | |
| 20260505122541 | 63 | 0.0 | 0.0 | 0.00 | 0.00 | 0.00 | 72 | 1011.5 | |
| 20260505121520 | 62 | 0.0 | 0.0 | 0.00 | 0.00 | 0.00 | 74 | 1011.3 | |
| 20260505120520 | 61 | 0.0 | 0.0 | 0.00 | 0.00 | 0.00 | 72 | 1011.0 | |
| 20260505115519 | 61 | 0.0 | 0.0 | 0.00 | 0.00 | 0.00 | 73 | 1010.9 | |
| 20260505114519 | 60 | 0.0 | 0.0 | 0.00 | 0.00 | 0.00 | 73 | 1011.1 | |
| 20260505113520 | 60 | 0.0 | 0.0 | 0.00 | 0.00 | 0.00 | 73 | 1011.0 | |
| 20260505112520 | 60 | 0.0 | 0.0 | 0.00 | 0.00 | 0.00 | 73 | 1011.0 | |
| 20260505111519 | 60 | 0.0 | 0.0 | 0.00 | 0.00 | 0.00 | 73 | 1011.0 | |
| 20260505110520 | 60 | 0.0 | 0.0 | 0.00 | 0.00 | 0.00 | 72 | 1010.9 | |
| 20260505101520 | 61 | 0.0 | 0.0 | 0.00 | 0.01 | 0.00 | 70 | 1010.3 | |
| 20260505100520 | 61 | 0.0 | 0.0 | 0.00 | 0.01 | 0.00 | 69 | 1010.3 | |
| 20260505095520 | 62 | 0.0 | 0.0 | 0.00 | 0.01 | 0.00 | 69 | 1010.2 | |
| 20260505094519 | 62 | 0.0 | 0.0 | 0.00 | 0.01 | 0.00 | 68 | 1009.9 | |
| 20260505093519 | 62 | 0.0 | 0.0 | 0.00 | 0.01 | 0.00 | 68 | 1009.8 | |
| 20260505092519 | 62 | 0.0 | 0.0 | 0.00 | 0.01 | 0.00 | 68 | 1009.8 | |
| 20260505091519 | 63 | 0.0 | 0.0 | 0.00 | 0.01 | 0.00 | 67 | 1009.9 | |
| 20260505090520 | 63 | 0.0 | 0.0 | 0.00 | 0.01 | 0.00 | 67 | 1009.9 | |
| 20260505085520 | 63 | 0.0 | 0.0 | 0.00 | 0.01 | 0.00 | 66 | 1009.8 | |
| 20260505084520 | 63 | 0.0 | 0.0 | 0.00 | 0.01 | 0.00 | 66 | 1009.8 | |
| 20260505083519 | 63 | 0.0 | 0.0 | 0.00 | 0.01 | 0.00 | 66 | 1009.6 | |
| 20260505082519 | 63 | 0.0 | 6.1 | 0.00 | 0.01 | 0.00 | 66 | 1009.4 | |
| 20260505081519 | 63 | 0.0 | 1.7 | 0.00 | 0.01 | 0.00 | 66 | 1009.3 | |
| 20260505080520 | 64 | 0.0 | 0.0 | 0.00 | 0.01 | 0.00 | 65 | 1009.5 | |
| 20260505075520 | 64 | 0.0 | 0.0 | 0.00 | 0.01 | 0.00 | 65 | 1009.4 | |
| 20260505074520 | 64 | 158 | 0.9 | 7.0 | 0.00 | 0.01 | 0.00 | 64 | 1009.4 |
| 20260505073519 | 64 | 0.0 | 1.7 | 0.00 | 0.01 | 0.00 | 64 | 1009.4 | |
| 20260505072520 | 65 | 0.0 | 3.5 | 0.00 | 0.01 | 0.00 | 64 | 1009.3 | |
| 20260505071519 | 65 | 0.0 | 3.5 | 0.00 | 0.01 | 0.00 | 63 | 1009.4 | |
| 20260505070519 | 65 | 0.0 | 0.0 | 0.00 | 0.01 | 0.00 | 63 | 1009.3 | |
| 20260505065519 | 65 | 0.0 | 4.3 | 0.00 | 0.01 | 0.00 | 63 | 1009.4 | |
| 20260505064540 | 65 | 0.0 | 3.5 | 0.00 | 0.01 | 0.00 | 63 | 1009.4 | |
| 20260505063519 | 65 | 0.0 | 0.9 | 0.00 | 0.01 | 0.00 | 62 | 1009.4 | |
| 20260505062519 | 66 | 158 | 0.9 | 6.1 | 0.00 | 0.01 | 0.00 | 62 | 1009.5 |
| 20260505061519 | 66 | 0.0 | 0.0 | 0.00 | 0.01 | 0.00 | 62 | 1009.5 | |
| 20260505060539 | 66 | 0.0 | 7.0 | 0.00 | 0.01 | 0.00 | 62 | 1009.4 | |
| 20260505055520 | 66 | 0.0 | 0.0 | 0.00 | 0.01 | 0.00 | 62 | 1009.5 | |
| 20260505054519 | 66 | 0.0 | 2.6 | 0.00 | 0.01 | 0.00 | 62 | 1009.5 | |
| 20260505053519 | 66 | 0.0 | 0.0 | 0.00 | 0.01 | 0.00 | 62 | 1009.7 | |
| 20260505052519 | 66 | 0.0 | 0.0 | 0.00 | 0.01 | 0.00 | 62 | 1009.7 | |
| 20260505051539 | 66 | 0.0 | 0.0 | 0.00 | 0.01 | 0.00 | 62 | 1009.7 | |
| 20260505050520 | 66 | 0.0 | 0.0 | 0.00 | 0.01 | 0.00 | 62 | 1009.7 | |
| 20260505041519 | 67 | 0.0 | 0.0 | 0.00 | 0.01 | 0.00 | 61 | 1009.4 | |
| 20260505040519 | 67 | 0.0 | 0.0 | 0.00 | 0.01 | 0.00 | 60 | 1009.4 | |
| 20260505035539 | 67 | 0.0 | 0.0 | 0.00 | 0.01 | 0.01 | 60 | 1009.2 | |
| 20260505034519 | 68 | 0.0 | 0.0 | 0.00 | 0.01 | 0.01 | 59 | 1009.1 | |
| 20260505033519 | 68 | 0.0 | 0.0 | 0.00 | 0.01 | 0.01 | 59 | 1009.0 | |
| 20260505032519 | 69 | 0.0 | 0.0 | 0.00 | 0.01 | 0.01 | 58 | 1009.0 | |
| 20260505031519 | 69 | 0.0 | 0.0 | 0.00 | 0.01 | 0.01 | 58 | 1008.9 | |
| 20260505030600 | 69 | 0.0 | 0.0 | 0.00 | 0.01 | 0.01 | 58 | 1008.8 | |
| 20260505025519 | 69 | 0.0 | 0.0 | 0.00 | 0.01 | 0.01 | 58 | 1008.6 | |
| 20260505024520 | 69 | 0.0 | 0.0 | 0.00 | 0.01 | 0.01 | 58 | 1008.4 | |
| 20260505023519 | 69 | 0.0 | 0.0 | 0.00 | 0.01 | 0.01 | 59 | 1008.2 | |
| 20260505022520 | 69 | 0.0 | 0.0 | 0.00 | 0.01 | 0.01 | 59 | 1008.1 | |
| 20260505021519 | 69 | 0.0 | 0.0 | 0.00 | 0.01 | 0.01 | 59 | 1007.9 | |
| 20260505020519 | 69 | 0.0 | 0.9 | 0.00 | 0.01 | 0.01 | 59 | 1007.7 | |
| 20260505015519 | 70 | 0.0 | 0.0 | 0.00 | 0.01 | 0.01 | 59 | 1007.7 | |
| 20260505014518 | 70 | 0.0 | 0.0 | 0.00 | 0.01 | 0.01 | 58 | 1007.6 | |
| 20260505013539 | 70 | 0.0 | 0.0 | 0.00 | 0.01 | 0.01 | 57 | 1007.5 | |
| 20260505012519 | 71 | 0.0 | 0.0 | 0.00 | 0.01 | 0.01 | 56 | 1007.6 | |
| 20260505011519 | 71 | 0.0 | 0.0 | 0.00 | 0.01 | 0.01 | 54 | 1007.5 | |
| 20260505010519 | 72 | 0.0 | 5.2 | 0.00 | 0.01 | 0.01 | 54 | 1007.4 | |
| 20260505005519 | 72 | 158 | 0.9 | 4.3 | 0.00 | 0.01 | 0.01 | 53 | 1007.5 |
| 20260505004519 | 72 | 0.0 | 2.6 | 0.00 | 0.01 | 0.01 | 53 | 1007.4 | |
| 20260505003519 | 72 | 0.0 | 2.6 | 0.00 | 0.01 | 0.01 | 53 | 1007.4 | |
| 20260505002519 | 73 | 0.0 | 1.7 | 0.00 | 0.01 | 0.01 | 52 | 1007.5 | |
| 20260505001520 | 73 | 0.0 | 0.0 | 0.00 | 0.01 | 0.01 | 52 | 1007.6 | |
| 20260505000519 | 73 | 0.0 | 0.0 | 0.00 | 0.01 | 0.01 | 52 | 1007.9 | |
| 20260504235518 | 74 | 0.0 | 0.0 | 0.00 | 0.01 | 0.01 | 51 | 1008.0 | |
| 20260504234520 | 74 | 0.0 | 0.0 | 0.00 | 0.01 | 0.01 | 51 | 1008.1 | |
| 20260504233519 | 74 | 0.0 | 0.0 | 0.00 | 0.01 | 0.01 | 52 | 1008.4 | |
| 20260504232559 | 75 | 0.0 | 0.0 | 0.00 | 0.01 | 0.01 | 51 | 1008.6 | |
| 20260504231519 | 75 | 0.0 | 0.0 | 0.00 | 0.01 | 0.01 | 50 | 1008.6 | |
| 20260504230519 | 75 | 0.0 | 0.0 | 0.00 | 0.01 | 0.01 | 48 | 1008.6 | |
| 20260504225518 | 76 | 0.0 | 0.0 | 0.00 | 0.01 | 0.01 | 48 | 1008.9 | |
| 20260504224520 | 76 | 0.0 | 0.0 | 0.00 | 0.01 | 0.01 | 47 | 1008.9 | |
| 20260504223519 | 76 | 0.0 | 0.0 | 0.00 | 0.01 | 0.01 | 45 | 1008.9 | |
| 20260504222518 | 77 | 0.0 | 0.0 | 0.00 | 0.01 | 0.01 | 48 | 1008.9 | |
| 20260504221519 | 77 | 0.0 | 0.0 | 0.00 | 0.01 | 0.01 | 48 | 1009.0 | |
| 20260504220518 | 77 | 0.0 | 0.0 | 0.00 | 0.01 | 0.01 | 47 | 1009.1 | |
| 20260504215518 | 77 | 0.0 | 0.0 | 0.00 | 0.01 | 0.01 | 47 | 1009.0 | |
| 20260504214519 | 77 | 0.0 | 0.0 | 0.00 | 0.01 | 0.01 | 46 | 1009.1 | |
| 20260504213518 | 76 | 0.0 | 0.0 | 0.00 | 0.01 | 0.01 | 47 | 1009.1 | |
| 20260504212518 | 76 | 0.0 | 0.0 | 0.00 | 0.01 | 0.01 | 48 | 1009.2 | |
| 20260504211518 | 77 | 0.0 | 0.0 | 0.00 | 0.01 | 0.01 | 48 | 1009.2 | |
| 20260504210519 | 77 | 0.0 | 0.0 | 0.00 | 0.01 | 0.01 | 49 | 1009.2 | |
| 20260504205559 | 77 | 0.0 | 0.0 | 0.00 | 0.01 | 0.01 | 48 | 1009.2 | |
| 20260504204518 | 77 | 0.0 | 0.0 | 0.00 | 0.01 | 0.01 | 48 | 1009.3 | |
| 20260504203518 | 77 | 0.0 | 0.9 | 0.00 | 0.01 | 0.01 | 49 | 1009.4 | |
| 20260504202519 | 76 | 0.0 | 4.3 | 0.00 | 0.01 | 0.01 | 49 | 1009.5 | |
| 20260504201539 | 76 | 0.0 | 0.0 | 0.00 | 0.01 | 0.01 | 48 | 1009.6 | |
| 20260504200519 | 77 | 203 | 2.6 | 7.0 | 0.00 | 0.01 | 0.01 | 48 | 1009.8 |
| 20260504195519 | 76 | 225 | 2.6 | 7.0 | 0.00 | 0.01 | 0.01 | 50 | 1010.1 |
| 20260504194518 | 77 | 180 | 0.9 | 3.5 | 0.00 | 0.01 | 0.01 | 50 | 1010.2 |
| 20260504193518 | 77 | 203 | 1.7 | 7.8 | 0.00 | 0.01 | 0.01 | 50 | 1010.3 |
| 20260504192518 | 77 | 0.0 | 4.3 | 0.00 | 0.01 | 0.01 | 50 | 1010.5 | |
| 20260504191538 | 75 | 0.0 | 0.0 | 0.00 | 0.01 | 0.01 | 52 | 1010.5 | |
| 20260504190518 | 75 | 0.0 | 0.9 | 0.00 | 0.02 | 0.01 | 53 | 1010.7 | |
| 20260504185539 | 74 | 0.0 | 0.0 | 0.00 | 0.02 | 0.01 | 55 | 1010.6 | |
| 20260504184518 | 74 | 0.0 | 0.0 | 0.00 | 0.02 | 0.01 | 54 | 1010.6 | |
| 20260504183519 | 75 | 0.0 | 0.0 | 0.00 | 0.02 | 0.01 | 55 | 1010.6 | |
| 20260504182518 | 74 | 158 | 0.9 | 8.7 | 0.00 | 0.02 | 0.01 | 57 | 1010.7 |
| 20260504181518 | 74 | 0.0 | 0.9 | 0.00 | 0.02 | 0.01 | 54 | 1010.7 | |
| 20260504180518 | 73 | 0.0 | 0.0 | 0.00 | 0.02 | 0.01 | 59 | 1010.6 | |
| 20260504175538 | 73 | 0.0 | 2.6 | 0.00 | 0.02 | 0.01 | 56 | 1010.6 | |
| 20260504174538 | 72 | 203 | 1.7 | 8.7 | 0.00 | 0.02 | 0.01 | 57 | 1010.6 |
| 20260504173518 | 72 | 0.0 | 1.7 | 0.00 | 0.02 | 0.01 | 57 | 1010.6 | |
| 20260504172539 | 72 | 0.0 | 0.9 | 0.00 | 0.02 | 0.01 | 57 | 1010.7 | |
| 20260504171518 | 71 | 0.0 | 0.9 | 0.00 | 0.02 | 0.01 | 58 | 1010.7 | |
| 20260504170519 | 70 | 203 | 1.7 | 8.7 | 0.00 | 0.02 | 0.01 | 57 | 1010.7 |
| 20260504150518 | 61 | 0.0 | 0.0 | 0.00 | 0.03 | 0.01 | 74 | 1011.7 | |
| 20260504140538 | 55 | 0.0 | 0.0 | 0.00 | 0.04 | 0.01 | 83 | 1012.5 |